Simultaneous Nadir Overpasses (SNOs) Predictions

Prediction of SNOs between GOES-16 and METOP-B Satellite Orbit:

Table of predicted SNOs for the next 14.0 days since TLE Epoch: 11/9/2019
Index Date Time (GOES-16) GOES-16 Lat,Lon METOP-B Lat,Lon Distance(km) Time Diff (sec)
1 11/11/2019 14:30:10 0.01, -75.21 -0.09, -74.78 48.43 80
2 11/13/2019 02:49:10 -0.01, -75.21 -0.96, -79.37 474.99 80
3 11/14/2019 02:25:51 -0.01, -75.21 0.18, -74.38 94.67 80
4 11/15/2019 14:44:45 0.00, -75.23 0.82, -78.95 423.40 80
5 11/16/2019 14:26:45 0.00, -75.24 -0.26, -73.95 146.37 80
6 11/18/2019 02:45:47 0.00, -75.24 -0.73, -78.55 376.81 80
7 11/19/2019 02:22:28 0.01, -75.25 0.41, -73.56 193.12 80
8 11/20/2019 14:41:20 -0.01, -75.27 0.64, -78.11 324.31 80
9 11/21/2019 14:23:22 -0.01, -75.28 -0.50, -73.12 246.14 80




NCC Satellite Simultaneous Nadir Overpasses (SNOs) Prediction Service
